Wind_Speed
89 87 85 84 83 82 81 81 81 81 81 81 80 80 81 82 84 85 86 86 85 85 85 84 84 85 85 84 83 83 82 82 82 82 82 82 81 81 81 80 79 78 77 76 76 77 78 78 79 80 80 80
91 89 88 89 88 87 87 87 87 86 85 84 83 82 83 84 85 87 88 88 88 88 87 88 87 88 89 88 87 86 85 85 85 85 86 86 86 85 84 83 82 80 79 79 80 80 81 82 83 83 83 83
89 90 91 92 92 92 91 91 91 90 89 88 87 86 87 87 86 87 87 88 89 89 90 91 91 91 92 92 91 89 88 88 88 88 89 89 89 89 87 86 84 83 82 83 83 84 84 85 86 86 86 86
91 90 91 93 94 94 94 95 94 93 92 91 92 93 92 91 91 90 89 88 88 89 91 92 93 93 95 95 94 92 91 91 91 91 91 91 92 92 90 88 87 86 86 86 87 87 88 88 89 90 90 90
96 94 94 95 94 94 95 97 97 96 93 91 93 96 96 95 95 94 93 92 90 91 92 93 94 95 96 97 97 96 94 94 93 94 94 94 95 96 93 90 90 89 90 90 90 91 91 92 93 93 94 94
96 97 97 97 97 96 96 97 99 98 96 95 96 97 96 96 97 97 96 96 95 95 96 96 96 96 96 97 98 98 97 97 96 97 96 96 97 98 96 94 93 92 93 93 94 94 94 95 96 97 97 97
95 95 96 97 98 99 99 99 99 99 99 100 102 101 99 98 97 98 97 97 97 99 100 100 100 100 99 99 99 99 99 99 99 100 99 98 99 99 99 97 96 95 95 96 96 97 97 98 99 100 100 100
98 97 97 96 96 98 100 100 100 101 101 100 102 103 102 101 100 99 99 99 100 101 102 102 102 102 102 102 102 102 101 101 102 102 100 100 101 101 101 100 99 98 98 98 99 99 100 100 101 102 103 103
102 101 100 99 98 97 98 100 100 101 102 101 102 103 103 103 102 101 101 102 103 103 103 103 104 103 104 104 104 105 104 104 104 104 103 103 103 103 103 103 102 101 101 101 102 102 102 103 103 104 105 106
108 107 106 104 102 100 100 101 102 102 101 102 103 103 103 104 103 102 102 102 103 104 104 105 105 105 106 105 106 107 107 107 106 106 106 106 106 106 106 106 105 104 103 103 104 104 105 105 105 106 107 107
113 112 111 110 108 106 105 105 105 105 104 105 106 105 105 104 103 102 101 102 102 103 105 106 107 107 107 107 107 108 109 109 109 108 108 109 109 109 108 107 107 106 105 104 104 105 105 105 105 106 107 108
114 114 113 113 112 111 110 110 109 109 108 109 108 107 107 106 105 104 104 104 104 104 106 107 107 107 107 108 109 110 111 111 111 111 111 111 112 112 110 109 108 107 106 105 105 104 104 104 104 105 106 107
114 115 114 114 114 113 113 113 113 113 112 112 111 110 110 109 108 108 109 108 108 108 109 108 108 107 107 108 110 111 113 113 113 114 113 113 113 114 113 111 110 108 108 108 107 107 106 106 106 106 107 108
113 114 114 114 114 114 114 115 115 115 115 115 115 114 112 111 111 112 114 113 112 112 113 111 109 108 108 109 111 112 114 115 115 115 115 115 115 116 116 115 114 112 111 111 111 110 110 110 110 110 110 111
112 113 114 114 114 115 115 116 116 117 117 116 117 117 116 115 115 116 117 116 115 116 117 115 112 112 112 112 113 114 115 116 116 116 116 116 117 118 119 119 119 118 117 115 114 114 114 114 114 114 114 114
110 112 113 114 115 115 116 117 117 118 118 118 118 118 117 117 119 120 119 118 118 118 119 118 115 115 116 117 117 118 119 119 118 117 117 117 118 120 121 122 123 123 121 120 118 117 117 118 118 118 118 119
107 109 111 113 114 115 116 117 119 119 120 120 120 119 119 119 120 121 121 120 119 119 120 120 119 119 120 121 122 122 122 122 121 120 119 120 121 122 123 125 125 125 124 123 122 122 122 122 122 123 123 123
102 105 107 109 111 113 114 116 118 119 121 122 122 122 121 121 121 122 122 122 121 120 121 122 122 122 124 124 125 125 125 124 123 123 123 123 124 125 126 126 125 125 125 125 124 124 125 126 126 126 126 127
98 100 103 105 107 109 111 113 115 117 119 121 122 124 124 123 123 123 123 123 123 121 122 124 124 124 125 126 127 128 128 127 127 127 127 127 128 128 128 127 127 126 126 125 125 125 125 127 128 128 128 128
95 97 98 100 103 105 107 109 111 113 116 118 120 123 124 125 125 125 125 125 124 123 123 124 124 124 125 127 129 130 130 130 130 131 130 130 130 130 130 130 130 129 128 127 127 127 127 128 128 129 129 129
92 94 95 97 99 100 102 104 106 109 111 114 116 119 122 124 125 126 127 127 126 125 125 126 126 125 126 127 129 130 131 132 133 133 133 133 133 133 133 133 133 132 131 131 131 131 131 131 131 131 132 132
87 89 92 94 96 97 99 100 102 104 107 110 112 115 118 121 123 124 126 127 128 127 127 127 127 127 127 128 129 130 131 132 134 135 135 134 134 135 135 135 135 135 135 135 134 134 134 134 134 135 135 135
81 84 87 90 92 95 96 98 100 101 103 105 108 111 113 116 119 122 124 126 128 128 128 128 128 128 129 129 130 131 132 133 135 136 135 135 135 137 137 137 137 137 138 138 137 137 137 138 138 138 138 139
76 79 82 85 88 90 93 96 98 99 100 102 104 107 110 112 115 117 120 123 126 128 129 129 129 129 130 131 132 132 132 133 135 136 136 135 136 138 138 138 138 138 139 140 140 140 140 140 140 140 141 142
71 74 77 80 83 85 89 92 95 97 99 100 102 104 106 109 111 114 116 119 122 124 127 129 130 130 131 132 133 133 133 133 134 134 134 135 136 137 137 137 138 139 139 140 141 141 142 142 142 142 142 143
67 70 73 75 78 81 83 87 90 93 96 98 100 102 104 106 108 111 113 115 117 120 123 126 129 130 131 132 133 134 134 135 136 135 134 133 133 134 134 134 136 137 138 138 139 141 142 143 143 144 143 143
65 67 69 71 74 76 79 82 85 88 91 95 97 100 102 103 106 108 110 112 114 116 118 121 124 127 130 132 133 133 134 136 136 136 135 134 133 133 132 131 132 133 135 135 137 139 140 141 142 142 143 143
64 65 67 68 70 72 75 77 80 83 86 89 93 96 99 101 103 105 107 109 111 113 115 117 119 122 126 129 131 133 134 135 136 136 136 135 135 134 133 132 132 132 132 133 134 136 137 139 139 139 140 142
66 66 66 66 67 69 72 74 77 79 81 84 87 91 94 98 100 103 105 107 109 110 112 114 116 118 121 125 128 131 132 134 136 136 136 136 136 136 136 136 135 135 135 135 135 136 136 137 136 136 138 139
68 67 67 67 67 68 70 72 74 76 78 81 83 86 89 93 96 99 101 104 107 108 110 111 113 116 118 120 124 127 130 133 134 135 136 137 137 138 138 139 139 138 138 138 138 138 138 138 138 137 138 137
69 69 69 69 69 69 69 71 72 74 76 78 80 82 85 88 91 94 97 100 103 106 108 110 111 114 116 118 120 123 127 130 133 134 135 137 138 139 140 141 141 140 140 139 139 140 140 141 141 141 141 140
Wind_Direction
246 247 247 247 247 247 248 249 249 249 249 250 252 253 253 254 254 255 256 256 257 258 259 260 260 261 262 262 261 261 262 262 262 263 263 264 264 264 264 265 265 266 267 267 268 268 268 268 268 268 269 269
248 248 248 248 248 248 248 249 250 251 251 250 251 251 251 251 252 252 253 254 255 256 257 257 258 259 260 260 260 260 260 261 261 261 262 262 262 263 263 263 264 265 266 266 266 267 267 267 267 268 268 268
249 249 249 249 249 249 249 249 250 251 252 252 252 252 252 252 252 252 252 253 254 254 255 256 256 257 258 259 259 259 259 259 260 260 261 262 262 263 263 263 264 265 265 266 266 266 267 267 267 267 268 268
250 250 250 251 251 251 251 251 251 252 253 254 254 254 253 254 254 254 254 254 255 255 256 256 256 257 258 259 259 259 259 260 260 260 261 262 263 263 264 264 265 266 266 266 266 267 267 267 268 268 269 269
251 251 251 252 252 252 252 253 253 252 253 254 254 254 253 254 255 255 256 256 256 256 256 257 257 258 259 260 261 261 261 261 261 261 262 262 263 264 265 265 266 266 266 267 267 267 267 268 269 269 270 270
251 251 252 252 253 253 253 254 254 254 254 254 255 255 255 255 256 257 257 258 258 258 258 258 258 259 260 261 262 262 262 262 262 262 262 263 263 265 266 266 266 266 267 267 267 267 268 268 269 269 270 271
252 251 252 252 252 253 254 254 255 255 255 255 256 257 257 257 257 257 258 258 259 260 260 260 260 260 260 261 262 262 263 263 263 263 263 264 264 265 266 266 267 267 267 268 268 268 268 269 269 269 270 271
253 253 252 252 252 253 254 254 255 255 255 255 256 257 258 258 258 258 259 259 260 261 261 261 261 261 261 262 262 262 263 263 263 263 264 264 265 265 266 266 267 267 268 268 269 269 269 269 270 270 270 271
254 254 254 253 253 252 253 254 254 255 256 256 257 258 258 259 259 258 259 260 260 261 261 261 261 262 262 262 263 263 263 263 263 264 264 264 264 264 265 266 266 267 267 268 269 269 269 270 270 270 271 271
254 254 254 254 254 253 254 254 254 255 255 256 257 258 259 259 259 259 259 260 260 260 261 261 261 261 261 262 262 263 263 264 264 264 264 263 263 263 264 265 265 266 266 267 267 268 269 269 269 270 271 271
252 253 254 254 254 254 254 254 255 255 255 256 256 257 258 259 259 260 260 260 260 260 261 261 260 260 261 261 262 262 263 263 263 264 264 264 263 263 263 264 265 265 265 266 266 267 267 268 269 270 270 271
251 252 252 253 253 254 254 255 255 256 256 257 257 257 258 259 260 261 261 261 261 260 260 260 260 260 260 260 261 261 262 263 263 263 263 264 264 263 263 264 264 265 265 266 266 266 267 268 268 269 270 271
250 251 251 252 252 253 253 254 255 256 257 257 258 258 258 259 260 261 261 261 260 260 260 261 261 261 261 261 261 261 262 262 262 263 263 264 264 264 263 263 263 264 265 266 266 267 267 268 269 269 270 271
250 250 250 250 251 252 252 253 254 255 256 257 258 258 259 259 260 261 261 260 260 261 261 261 262 262 262 263 263 263 262 262 263 263 263 264 264 264 263 263 263 264 265 266 266 267 268 269 269 270 271 271
250 250 250 250 250 250 251 252 253 254 255 255 256 257 258 259 259 260 260 261 261 261 262 262 262 262 263 263 264 264 264 264 263 263 264 264 264 264 263 263 263 264 265 266 267 267 268 269 270 270 271 272
250 250 250 249 249 249 250 251 252 253 254 255 255 256 257 257 259 259 260 261 261 262 263 263 263 263 263 264 264 264 264 264 265 265 265 265 265 265 264 264 264 264 265 266 267 268 268 269 270 270 271 272
251 250 250 249 249 249 249 250 251 251 253 254 254 255 255 256 257 259 260 260 261 262 263 264 264 264 264 264 264 264 264 265 265 266 266 266 266 266 266 265 265 266 266 267 267 268 268 269 269 270 271 272
252 251 251 250 249 249 249 249 249 250 251 252 253 254 254 255 256 257 258 259 260 261 262 263 263 264 264 264 264 265 265 265 266 266 267 267 267 267 267 267 267 267 268 268 268 268 269 269 270 270 271 272
253 252 252 251 250 250 249 249 249 249 250 251 252 253 253 254 255 256 257 258 259 259 260 261 262 262 263 264 264 265 265 265 265 266 266 266 267 267 268 268 269 269 269 269 269 269 269 270 270 270 271 271
254 253 253 252 251 251 250 249 249 249 249 249 250 251 252 252 253 254 255 256 257 257 258 258 259 260 261 262 263 264 265 265 265 266 266 266 267 268 269 269 269 269 270 270 270 270 270 270 271 271 271 272
254 254 253 253 252 252 251 250 250 249 249 249 249 249 250 251 252 253 253 254 255 255 255 256 257 258 259 259 261 262 263 264 265 265 266 267 267 268 269 269 270 270 270 271 271 271 271 271 272 272 272 272
254 254 254 254 253 253 252 251 250 250 250 250 249 249 249 250 250 251 252 253 253 253 254 255 256 256 257 257 258 260 261 262 263 264 265 266 267 268 268 269 270 270 271 271 271 271 272 272 272 273 273 273
255 254 254 254 254 253 253 252 251 251 250 250 250 250 249 249 250 250 250 251 252 253 253 253 254 255 255 256 257 258 259 260 262 263 264 265 266 266 267 268 269 270 270 271 271 271 272 272 272 273 273 273
256 255 255 254 254 254 253 253 252 252 251 250 250 250 250 250 250 250 250 250 251 252 252 253 253 254 254 255 256 256 257 259 260 262 263 264 264 265 266 267 268 268 269 270 270 271 271 271 272 272 273 273
258 257 256 255 254 254 254 253 253 253 252 251 251 250 250 250 250 250 250 250 250 250 251 252 253 253 254 254 255 256 256 257 258 260 261 262 263 264 265 266 266 267 268 268 269 269 270 270 271 272 272 273
260 259 258 257 256 255 254 254 254 253 253 252 252 251 251 251 251 250 250 250 250 250 250 251 252 253 253 254 255 255 256 257 257 258 260 261 262 263 264 264 265 266 266 267 268 269 269 270 270 271 271 271
263 261 259 258 257 256 255 255 254 254 253 253 253 252 252 251 251 251 251 250 250 250 250 250 251 252 252 253 254 255 255 256 257 258 259 259 260 261 262 262 263 264 265 266 267 268 268 269 269 270 270 271
265 263 261 259 258 257 256 256 255 254 254 254 253 253 253 252 252 251 251 251 251 250 250 250 250 250 251 252 253 254 255 256 257 257 258 258 259 259 260 260 261 262 263 264 266 266 267 268 268 269 269 270
268 267 265 263 261 259 258 257 256 255 255 254 254 253 253 253 253 252 252 252 252 251 251 251 251 250 250 251 252 253 254 255 256 257 257 258 258 259 259 259 260 261 262 263 264 265 265 266 267 267 268 269
270 269 268 266 264 262 261 259 258 257 256 255 254 254 253 253 253 253 253 253 253 252 252 251 251 251 251 251 251 252 253 254 255 256 256 257 258 258 259 259 260 260 262 263 263 264 264 265 265 266 266 267
270 270 269 268 267 266 264 262 261 259 258 257 256 255 254 254 253 253 253 253 253 253 253 252 252 252 252 252 251 251 252 253 254 255 256 256 257 258 258 259 259 260 261 261 262 263 263 264 265 265 265 266
Height
10829 10831 10833 10833 10833 10834 10834 10834 10834 10834 10835 10837 10838 10839 10839 10839 10839 10839 10839 10840 10841 10842 10842 10842 10842 10841 10841 10843 10845 10845 10847 10846 10845 10845 10844 10844 10845 10845 10846 10848 10850 10852 10855 10855 10854 10852 10851 10849 10846 10845 10844 10844
10824 10827 10826 10824 10825 10825 10826 10826 10825 10826 10827 10829 10830 10831 10830 10829 10829 10829 10830 10832 10833 10834 10834 10834 10834 10833 10832 10832 10835 10838 10840 10840 10839 10839 10837 10836 10836 10837 10838 10840 10843 10846 10848 10848 10846 10845 10843 10841 10839 10837 10837 10837
10816 10819 10817 10814 10816 10817 10818 10818 10818 10819 10820 10822 10823 10823 10821 10821 10821 10821 10823 10825 10825 10826 10826 10825 10825 10825 10823 10823 10826 10830 10833 10832 10832 10832 10830 10829 10827 10828 10831 10833 10836 10839 10841 10840 10839 10837 10836 10834 10831 10830 10829 10829
10806 10810 10808 10806 10809 10811 10811 10811 10811 10813 10815 10816 10814 10812 10811 10812 10813 10814 10817 10818 10820 10820 10819 10817 10817 10818 10816 10816 10818 10821 10824 10824 10825 10825 10824 10823 10820 10818 10823 10828 10830 10832 10832 10832 10831 10830 10828 10826 10824 10822 10821 10821
10796 10801 10800 10799 10802 10803 10804 10803 10802 10804 10809 10809 10801 10799 10803 10805 10806 10808 10810 10812 10814 10814 10812 10810 10810 10811 10810 10810 10810 10812 10815 10816 10817 10817 10817 10818 10812 10809 10815 10821 10823 10823 10823 10823 10823 10822 10820 10818 10816 10814 10813 10813
10788 10792 10791 10792 10795 10795 10796 10795 10793 10795 10801 10800 10791 10791 10797 10799 10800 10802 10803 10805 10807 10805 10803 10803 10804 10804 10804 10803 10802 10803 10805 10807 10808 10808 10809 10810 10805 10803 10807 10811 10814 10815 10815 10814 10814 10813 10812 10810 10808 10805 10803 10803
10778 10781 10782 10784 10787 10786 10787 10788 10786 10787 10790 10790 10785 10786 10789 10792 10795 10795 10796 10798 10798 10796 10795 10796 10796 10797 10797 10796 10795 10795 10795 10798 10798 10797 10800 10801 10799 10797 10797 10800 10803 10805 10805 10804 10804 10804 10804 10802 10800 10796 10794 10793
10768 10771 10772 10775 10779 10778 10777 10779 10779 10778 10779 10780 10779 10779 10781 10784 10787 10788 10789 10790 10790 10787 10786 10787 10788 10789 10789 10787 10787 10786 10786 10788 10787 10787 10791 10792 10790 10789 10788 10789 10792 10794 10795 10795 10794 10794 10794 10793 10790 10788 10785 10783
10758 10760 10762 10764 10768 10770 10769 10770 10770 10769 10771 10773 10770 10769 10772 10774 10777 10780 10780 10780 10780 10779 10778 10778 10779 10780 10779 10779 10778 10777 10777 10778 10777 10778 10782 10781 10780 10780 10779 10778 10781 10783 10784 10784 10783 10783 10782 10782 10781 10779 10776 10774
10747 10749 10751 10753 10757 10760 10761 10761 10760 10760 10763 10763 10759 10760 10762 10763 10765 10768 10769 10770 10771 10770 10768 10767 10769 10769 10769 10770 10770 10768 10767 10767 10767 10769 10770 10769 10770 10771 10770 10768 10770 10772 10773 10774 10773 10772 10771 10771 10771 10770 10768 10765
10737 10739 10741 10743 10746 10749 10750 10751 10751 10751 10754 10752 10749 10754 10755 10754 10755 10756 10758 10760 10760 10760 10757 10756 10757 10759 10759 10761 10761 10758 10756 10756 10757 10759 10757 10757 10758 10760 10760 10759 10760 10761 10761 10762 10762 10761 10761 10761 10761 10760 10759 10757
10726 10727 10730 10733 10735 10738 10739 10740 10741 10742 10743 10741 10742 10747 10747 10745 10746 10747 10748 10749 10747 10747 10746 10744 10745 10748 10750 10750 10750 10748 10745 10745 10746 10747 10746 10746 10746 10748 10750 10751 10751 10750 10750 10750 10750 10750 10750 10751 10751 10750 10750 10748
10714 10716 10720 10722 10724 10727 10728 10729 10731 10732 10732 10732 10733 10737 10737 10737 10739 10738 10736 10735 10734 10734 10734 10734 10736 10738 10739 10739 10738 10737 10735 10734 10735 10735 10735 10736 10736 10736 10739 10740 10740 10741 10740 10739 10739 10738 10738 10739 10740 10740 10739 10739
10702 10705 10708 10711 10713 10715 10717 10719 10720 10721 10722 10722 10723 10724 10727 10729 10730 10725 10721 10722 10724 10723 10723 10725 10727 10728 10728 10726 10725 10724 10724 10723 10723 10724 10724 10725 10725 10724 10727 10728 10728 10730 10730 10730 10730 10729 10728 10727 10728 10729 10728 10728
10689 10692 10695 10698 10701 10703 10705 10708 10709 10710 10710 10712 10713 10714 10717 10719 10716 10712 10711 10712 10713 10712 10712 10714 10718 10717 10715 10715 10714 10713 10711 10710 10711 10712 10712 10714 10713 10712 10713 10715 10716 10718 10719 10720 10721 10721 10719 10717 10716 10716 10717 10716
10677 10679 10681 10685 10688 10691 10693 10696 10698 10699 10699 10701 10702 10703 10707 10707 10703 10701 10702 10703 10703 10702 10701 10704 10708 10707 10704 10703 10702 10700 10698 10698 10699 10700 10701 10702 10701 10700 10699 10701 10703 10705 10708 10711 10712 10712 10710 10708 10706 10705 10705 10705
10664 10666 10668 10672 10675 10678 10681 10684 10686 10688 10688 10689 10691 10693 10695 10696 10694 10692 10692 10693 10694 10694 10692 10692 10694 10693 10691 10690 10689 10688 10688 10688 10688 10689 10690 10690 10689 10688 10686 10687 10690 10693 10697 10700 10701 10701 10699 10697 10696 10695 10694 10693
10653 10654 10656 10659 10662 10665 10668 10671 10673 10676 10677 10678 10679 10681 10683 10685 10685 10683 10682 10683 10684 10685 10683 10681 10681 10680 10678 10678 10678 10678 10677 10677 10678 10678 10678 10678 10677 10675 10673 10675 10680 10683 10685 10686 10687 10688 10687 10685 10684 10684 10684 10682
10641 10643 10644 10646 10649 10652 10655 10658 10661 10663 10666 10667 10668 10669 10671 10673 10674 10674 10673 10673 10673 10675 10674 10671 10670 10669 10666 10665 10665 10665 10665 10665 10665 10665 10665 10664 10664 10664 10664 10666 10669 10670 10671 10672 10673 10674 10674 10672 10671 10672 10672 10670
10630 10632 10633 10635 10637 10639 10642 10645 10648 10650 10652 10654 10656 10656 10657 10659 10661 10662 10662 10662 10662 10664 10662 10659 10659 10658 10656 10653 10650 10651 10653 10653 10652 10652 10652 10652 10654 10654 10654 10655 10655 10657 10659 10660 10660 10660 10660 10659 10658 10658 10658 10658
10620 10621 10623 10624 10626 10628 10630 10633 10635 10637 10638 10640 10642 10643 10643 10645 10648 10649 10649 10650 10650 10652 10650 10648 10648 10648 10647 10643 10638 10637 10640 10640 10639 10639 10640 10641 10643 10643 10643 10643 10643 10644 10646 10646 10646 10646 10646 10646 10645 10645 10645 10645
10610 10612 10613 10614 10615 10616 10618 10620 10622 10624 10625 10626 10628 10630 10631 10632 10634 10636 10636 10636 10637 10639 10639 10637 10638 10637 10636 10634 10630 10626 10626 10626 10626 10626 10629 10632 10632 10631 10631 10632 10632 10632 10632 10632 10633 10633 10633 10633 10633 10632 10632 10631
10600 10602 10603 10604 10605 10606 10607 10608 10610 10612 10613 10614 10615 10617 10618 10619 10621 10623 10624 10624 10625 10626 10627 10627 10628 10627 10625 10623 10620 10617 10615 10614 10614 10614 10617 10621 10621 10619 10619 10620 10620 10620 10619 10618 10619 10620 10619 10619 10620 10619 10619 10618
10592 10593 10594 10595 10595 10595 10596 10597 10598 10600 10601 10603 10604 10605 10606 10608 10609 10611 10612 10614 10614 10615 10616 10617 10617 10617 10616 10613 10610 10608 10607 10605 10603 10604 10606 10608 10607 10605 10606 10609 10609 10608 10606 10605 10605 10606 10606 10605 10605 10606 10605 10604
10584 10584 10584 10585 10585 10585 10585 10586 10587 10588 10589 10591 10592 10593 10594 10596 10597 10599 10600 10602 10604 10605 10604 10604 10605 10605 10605 10603 10601 10599 10598 10596 10594 10595 10596 10595 10594 10593 10594 10596 10596 10597 10595 10592 10592 10592 10592 10592 10592 10593 10592 10591
10575 10575 10575 10575 10575 10575 10575 10575 10576 10576 10578 10579 10580 10581 10583 10584 10585 10586 10588 10589 10591 10592 10592 10592 10592 10593 10593 10592 10591 10590 10588 10586 10585 10587 10587 10585 10583 10581 10582 10583 10583 10584 10582 10580 10579 10578 10578 10579 10579 10579 10579 10579
10565 10565 10565 10565 10565 10565 10565 10565 10565 10566 10566 10567 10568 10569 10570 10571 10572 10573 10575 10576 10577 10578 10579 10580 10581 10581 10581 10581 10580 10579 10578 10576 10575 10577 10578 10577 10574 10572 10571 10572 10571 10570 10569 10568 10567 10565 10564 10565 10565 10566 10566 10564
10555 10554 10554 10555 10555 10555 10555 10555 10555 10555 10556 10556 10557 10557 10558 10559 10559 10560 10561 10562 10564 10565 10566 10568 10569 10569 10569 10568 10568 10568 10567 10566 10564 10565 10566 10566 10565 10563 10561 10560 10559 10558 10558 10557 10554 10551 10552 10552 10553 10554 10552 10549
10545 10545 10545 10545 10546 10546 10545 10545 10545 10546 10546 10546 10546 10546 10546 10547 10547 10548 10549 10549 10551 10552 10554 10554 10556 10557 10557 10557 10556 10556 10556 10554 10553 10552 10553 10554 10554 10553 10551 10549 10548 10547 10548 10547 10542 10540 10540 10539 10540 10541 10537 10536
10536 10536 10536 10536 10536 10537 10536 10536 10535 10535 10536 10536 10536 10536 10536 10536 10536 10536 10537 10537 10538 10539 10541 10542 10543 10544 10545 10545 10544 10544 10543 10542 10540 10540 10540 10541 10541 10540 10539 10537 10537 10537 10536 10535 10532 10530 10528 10526 10528 10528 10524 10524
10528 10527 10527 10527 10527 10527 10527 10526 10526 10526 10526 10526 10526 10526 10526 10526 10526 10526 10526 10526 10526 10527 10527 10529 10530 10531 10531 10531 10532 10532 10531 10529 10528 10529 10529 10529 10528 10527 10526 10526 10526 10526 10525 10524 10521 10519 10516 10514 10514 10514 10512 10513